Home > Weather > Saint-Jérôme > Past weeks

Flag for Canada Weather for the Past 2 Weeks in Saint-Jérôme, Quebec, Canada

Now
34 °F

Passing clouds.


Feels Like: 34 °F
Forecast: 33 / 58 °F
Wind: 2 mph from North

Location: Montreal / Mirabel

Current Time: Apr 30, 2016 at 6:05:10 AM

Latest Report: Apr 30, 2016 at 5:00 AM


Visibility: 25 mi

Pressure: 30.24 "Hg

Humidity: 51%

Dew Point: 18 °F

Location of Saint-JérômeLocation

Historic Weather in Saint-Jérôme — Graph

°F

Saint-Jérôme Temperature Yesterday

Maximum temperature yesterday: 54 °F (at 5:00 PM)
Minimum temperature yesterday: 27 °F (at 4:00 AM)
Average temperature yesterday: 40 °F

High & Low Weather Summary for the Past Weeks

 TemperatureHumidityPressure
High73 °F (Apr 17, 5:00 PM)100% (Apr 18, 8:00 PM)30.62 "Hg (Apr 18, 8:00 PM)
Low27 °F (Apr 27, 6:00 AM)12% (Apr 21, 2:00 PM)29.79 "Hg (Apr 22, 12:00 PM)
Average44 °F44%30.16 "Hg
* Reported Apr 15 4:00 AM — Apr 30 4:00 AM, Saint-Jérôme, Weather by CustomWeather, © 2016

Note: Actual official high and low records may vary slightly from our data, if they occured in-between our weather recording intervals... More about our weather records

Advertising

Saint-Jérôme Weather History for the Previous 24 Hours

Scroll right to see more
 ConditionsComfort  
Time TempWeatherWind HumidityBarometerVisibility
4:00 AM
Sat, Apr 30
36 °FPassing clouds.3 mph48%30.23 "Hg25 mi
3:00 AM36 °FPassing clouds.3 mph56%30.23 "Hg25 mi
2:00 AM36 °FPassing clouds.3 mph56%30.21 "Hg25 mi
1:00 AM37 °FPassing clouds.3 mph48%30.22 "Hg25 mi
12:00 AM37 °FPassing clouds.No wind48%30.21 "Hg25 mi
11:00 PM
Fri, Apr 29
43 °FPassing clouds.2 mph34%30.19 "Hg25 mi
10:00 PM43 °FPassing clouds.3 mph34%30.19 "Hg25 mi
9:00 PM45 °FPartly sunny.No wind29%30.17 "Hg25 mi
8:00 PM46 °FBroken clouds.3 mph29%30.14 "Hg45 mi
7:00 PM50 °FPartly sunny.9 mph24%30.12 "Hg45 mi
6:00 PM54 °FPartly sunny.6 mph22%30.11 "Hg45 mi
5:00 PM54 °FPartly sunny.6 mph22%30.12 "Hg45 mi
4:00 PM52 °FPartly sunny.5 mph22%30.13 "Hg45 mi
3:00 PM52 °FPartly sunny.3 mph24%30.14 "Hg45 mi
2:00 PM48 °FPartly sunny.5 mph25%30.16 "Hg45 mi
1:00 PM46 °FPartly sunny.7 mph27%30.18 "Hg45 mi
12:00 PM45 °FScattered clouds.6 mph31%30.20 "Hg45 mi
11:00 AM43 °FScattered clouds.8 mph31%30.22 "Hg45 mi
10:00 AM41 °FScattered clouds.7 mph33%30.23 "Hg45 mi
9:00 AM39 °FScattered clouds.7 mph39%30.23 "Hg45 mi
8:00 AM34 °FPassing clouds.7 mph51%30.23 "Hg45 mi
7:00 AM30 °FPassing clouds.3 mph55%30.22 "Hg45 mi
6:00 AM28 °FPassing clouds.3 mph55%30.21 "Hg45 mi
Weather by CustomWeather, © 2016

See weather overviewHow to use our weather pages